Regional Weather Roundup
Issued by NWS Cleveland, OH

Home | Current Version | Previous Version | Text Only | Print | Product List | Glossary Off
Versions: 1 2 3 4 5 6 7 8 9 10 11 12 13 14 15 16 17 18 19 20 21 22 23 24 25 26 27 28 29 30 31 32 33 34 35 36 37 38 39 40 41 42 43 44 45 46 47 48 49 50

000
ASUS41 KCLE 241712
RWRCLE
OHIO REGIONAL WEATHER ROUNDUP
NATIONAL WEATHER SERVICE WILMINGTON, OH
1200 PM EST FRI NOV 24 2017

NOTE: "FAIR" INDICATES FEW OR NO CLOUDS BELOW 12,000 FEET WITH NO
SIGNIFICANT WEATHER AND/OR OBSTRUCTIONS TO VISIBILITY.

OHZ001>008-015>018-024>027-034-035-043-044-241800-
   NORTHWEST OHIO

CITY           SKY/WX    TMP DP  RH WIND       PRES   REMARKS
DEFIANCE       FAIR      46  30  53 S15       29.81F
FINDLAY        FAIR      49  29  46 S16       29.84F
TOLEDO EXPRESS FAIR      49  30  48 S16       29.81F
TOLEDO EXEC    FAIR      49  29  46 SW16G24   29.82F
LIMA           FAIR      48  29  47 S14G23    29.85F
$$

OHZ009>014-019>023-028>033-038-089-241800-
   NORTHEAST OHIO

CITY           SKY/WX    TMP DP  RH WIND       PRES   REMARKS
CLE-HOPKINS    FAIR      49  25  39 SW14      29.89F
CLE-LAKEFRONT  FAIR      49  22  34 SW17      29.86F
CUY CO. ARPT   SUNNY     48  25  40 S17G23    29.87F
LORAIN-ELYRIA  FAIR      47  24  40 SW18G25   29.86F
ASHTABULA      FAIR      46  25  43 S14       29.88F
AKRON-CANTON   FAIR      47  26  44 SW17      29.90F
WOOSTER        FAIR      46  27  47 S12       29.89F
MANSFIELD      FAIR      48  26  42 S18       29.87F
YOUNGSTOWN     FAIR      47  25  42 SW12G22   29.90F
$$

OHZ042-051>053-060>062-070>072-077>081-241800-
  SOUTHWEST OHIO

CITY           SKY/WX    TMP DP  RH WIND       PRES   REMARKS
CINC-COVINGTON FAIR      50  26  39 SW10G21   29.92F
CINC-LUNKEN    FAIR      50  29  44 S9        29.95F
HAMILTON       FAIR      52  25  35 SW9       29.93F
DAYTON         FAIR      48  27  44 S14       29.90F
WRIGHT-PAT AFB MOSUNNY   50  21  32 S13       29.90F
DAYTON GENERAL FAIR      49  24  37 SW15      29.91F
WILMINGTON     FAIR      49  29  46 SW15      29.92F
$$

OHZ036-037-039>041-045>050-054>059-063>069-073>076-082>088-241800-
  CENTRAL AND SOUTHEAST OHIO

CITY           SKY/WX    TMP DP  RH WIND       PRES   REMARKS
COLUMBUS       FAIR      48  27  44 SW13      29.93F
OSU AIRPORT    FAIR      48  29  47 S13       29.92F
BOLTON FIELD   SUNNY     48  28  46 SW16      29.93F
RICKENBACK AFB FAIR      46  29  50 S9        29.93F
NEWARK         FAIR      49  27  42 S9        29.93F
MARION         FAIR      48  28  46 S13       29.89F
LANCASTER      FAIR      49  27  42 SW10      29.94F
ZANESVILLE     FAIR      49  27  42 VRB7      29.94F
NEW PHILLY     FAIR      48  26  42 S9        29.94F
$$



USA.gov is the U.S. government's official web portal to all federal, state and local government web resources and services.